Simultaneous Nadir Overpasses (SNOs) Predictions

Prediction of SNOs between METOP-B and NOAA-19 Satellite Orbit:

Table of predicted SNOs for the next 14.0 days since TLE Epoch: 3/30/2024
Index Date (METOP-B) Time (METOP-B) Lat,Lon (METOP-B) SZA (METOP-B ) Date (NOAA-19) Time (NOAA-19) Lat,Lon (NOAA-19) SZA (NOAA-19 ) Distance(km) Time Diff (sec)
1 04/09/2024 19:28:36 -78.71, 78.02 109.17 04/09/2024 19:27:27 -78.72, 78.11 109.17 2.45 69
2 04/09/2024 20:19:14 78.79,-114.12 70.92 04/09/2024 20:18:26 78.79,-114.15 70.91 0.60 48
3 04/09/2024 21:09:52 -78.88, 53.75 108.99 04/09/2024 21:09:20 -78.86, 53.65 109.01 2.49 32
4 04/09/2024 22:00:29 79.00,-138.12 71.15 04/09/2024 22:00:17 79.00,-138.07 71.16 1.13 12
5 04/09/2024 22:51:09 -79.04, 29.52 108.81 04/09/2024 22:51:13 -79.04, 29.48 108.81 0.88 4
6 04/09/2024 23:41:47 79.13,-162.58 71.29 04/09/2024 23:42:11 79.14,-162.47 71.31 2.80 24
7 04/10/2024 00:32:26 -79.21, 5.32 108.63 04/10/2024 00:33:06 -79.21, 5.35 108.61 0.76 40
8 04/10/2024 01:23:05 79.25, 172.98 71.43 04/10/2024 01:24:06 79.24, 172.89 71.42 2.12 61



Historial Predications of SNOs between METOP-B and NOAA-19
